Location: Apeadero de Los Molinos-Guadarrama
(40.7091°N, 4.0689°W)
Time: 05:59:00
(UTC+00:00)

Tiangong - Pass Details

Date: 07 October 2021
Orbit: 382 x 385 km, 41.5° (Epoch: 16 October)

Event Time Altitude Azimuth Distance (km) Brightness Sun altitude
Exits shadow 05:50:13 - 257° (WSW) 1,582 3.5 -6.3°
Reaches altitude 10° 05:50:56 10° 247° (WSW) 1,394 3.3 -6.1°
Maximum altitude 05:52:42 14° 213° (SSW) 1,170 3.2 -5.8°
Drops below altitude 10° 05:54:28 10° 179° (S) 1,389 4.0 -5.5°
Sets 05:57:12 0° 152° (SSE) 2,236 5.4 -5.0°
